Torna al catalogo

TRANSIT 2A

AttivoNavigazioneLEO
NORAD 45·PAYLOAD·🇺🇸 United States

Lanciato Jun 22, 1960 da Cape Canaveral Space Force Station

Loading…

Prossimi Passaggi (prossime 24 ore)

TLE

AggiornatoSource: Space-Track

Epoca: Sep 14, 2026, 09:06 UTC

1 00045U 60007A   26257.37950718  .00000199  00000-0  75387-4 0  9997
2 00045  66.6927 124.2971 0240848  94.1674 268.6991 14.36022961392852

Traccia TRANSIT 2A in tempo reale con AllMySat

Download on the App Store